Alliance, NE

3:46 AM MST on February 27, 2017 (GMT -0700)
Alliance Municipal

Weather History for KAIA - July, 2013

Change the Weather History Date:

Thursday, July 18, 2013

  Actual Average Record
Temperature  
Mean Temperature 79 °F 73 °F  
Max Temperature 97 °F 89 °F 103 °F (2006)
Min Temperature 61 °F 57 °F 45 °F (2005)
Degree Days  
Heating Degree Days 0 0  
Month to date heating degree days 0 5  
Since 1 June heating degree days 62 98  
Since 1 July heating degree days 0 5  
Cooling Degree Days 14 8  
Month to date cooling degree days 166 125  
Year to date cooling degree days 312 223  
Since 1 June cooling degree days 290 213  
Growing Degree Days 28 (Base 50)    
Moisture  
Dew Point 56 °F    
Average Humidity 56    
Maximum Humidity 90    
Minimum Humidity 22    
Precipitation  
Precipitation 0.00 in 0.09 in 1.40 in (1897)
Month to date precipitation T 1.43  
Year to date precipitation 6.72 9.82  
Sea Level Pressure  
Sea Level Pressure 29.92 in    
Wind  
Wind Speed 8 mph (SSE)    
Max Wind Speed 23 mph    
Max Gust Speed 25 mph    
Visibility 10 miles    
Events Rain , Thunderstorm    
T = Trace of Precipitation, MM = Missing Value Source: NWS Daily Summary

Daily Weather History Graph

Daily Weather History Graph

Search for Another Location

Airport or City:

Trip Planner

Search our weather history database for the weather conditions in past years. The results will help you decide how hot, cold, wet, or windy it might be!

Date:

Astronomy

Jul. 18, 2013 Rise Set
Actual Time 5:31 AM MDT 8:22 PM MDT
Civil Twilight 4:58 AM MDT 8:55 PM MDT
Nautical Twilight 4:16 AM MDT 9:37 PM MDT
Astronomical Twilight 3:28 AM MDT 10:25 PM MDT
Moon 4:21 PM MDT (7/18) 1:24 AM MDT (7/18)
Length of Visible Light 15h 57m
Length of Day
14h 51m
Waxing Gibbous, 78% of the Moon is Illuminated
Jul 18
Waxing Gibbous
Jul 22
Full
Jul 29
Last Quarter
Aug 6
New
Aug 14
First Quarter

Hourly Weather History & Observations

Time (MDT) Temp. Heat Index Dew Point Humidity Pressure Visibility Wind Dir Wind Speed Gust Speed Precip Events Conditions
12:53 AM 72.0 °F - 57.0 °F 59% 29.99 in 10.0 mi South 18.4 mph - N/A   Clear
1:53 AM 69.1 °F - 57.9 °F 68% 29.98 in 10.0 mi SSE 12.7 mph - N/A   Clear
2:53 AM 66.9 °F - 57.9 °F 73% 29.96 in 10.0 mi SSE 12.7 mph - N/A   Clear
3:53 AM 64.9 °F - 57.9 °F 78% 29.96 in 10.0 mi SSE 6.9 mph - N/A   Clear
4:53 AM 62.1 °F - 57.9 °F 86% 29.96 in 10.0 mi SSE 5.8 mph - N/A   Clear
5:53 AM 61.0 °F - 57.9 °F 90% 29.96 in 10.0 mi SSE 5.8 mph - N/A   Clear
6:53 AM 66.0 °F - 59.0 °F 78% 29.96 in 10.0 mi SSE 11.5 mph - N/A   Clear
7:53 AM 72.0 °F - 59.0 °F 64% 29.95 in 10.0 mi South 13.8 mph - N/A   Clear
8:53 AM 77.0 °F - 57.9 °F 52% 29.96 in 10.0 mi South 9.2 mph - N/A   Clear
9:53 AM 80.1 °F 80.6 °F 57.9 °F 47% 29.94 in 10.0 mi SSW 9.2 mph - N/A   Clear
10:53 AM 84.0 °F 83.3 °F 57.0 °F 40% 29.92 in 10.0 mi South 11.5 mph - N/A   Clear
11:53 AM 88.0 °F 86.7 °F 57.0 °F 35% 29.90 in 10.0 mi SSW 8.1 mph - N/A   Clear
12:53 PM 91.9 °F 90.0 °F 55.0 °F 29% 29.88 in 10.0 mi SW 12.7 mph - N/A   Clear
1:53 PM 93.0 °F - 52.0 °F 25% 29.87 in 10.0 mi Variable 4.6 mph - N/A   Clear
2:53 PM 96.1 °F - 51.1 °F 22% 29.84 in 10.0 mi SSW 5.8 mph - N/A   Clear
3:53 PM 95.0 °F - 51.1 °F 22% 29.84 in 10.0 mi Variable 3.5 mph - N/A   Clear
4:53 PM 93.9 °F - 48.9 °F 21% 29.84 in 10.0 mi Calm Calm - N/A   Scattered Clouds
5:53 PM 91.0 °F 88.5 °F 53.1 °F 27% 29.85 in 10.0 mi East 13.8 mph - N/A   Scattered Clouds
6:53 PM 91.9 °F - 51.1 °F 25% 29.83 in 10.0 mi ESE 11.5 mph - N/A   Clear
7:53 PM 84.0 °F - 52.0 °F 33% 29.85 in 10.0 mi ESE 6.9 mph - N/A   Clear
8:53 PM 82.0 °F 81.6 °F 55.9 °F 41% 29.88 in 10.0 mi NE 11.5 mph - N/A   Scattered Clouds
9:53 PM 77.0 °F - 55.9 °F 48% 29.90 in 10.0 mi East 8.1 mph - N/A   Clear
10:53 PM 77.0 °F - 55.9 °F 48% 29.91 in 10.0 mi North 4.6 mph - N/A Thunderstorm Scattered Clouds
11:26 PM 71.6 °F - 62.6 °F 73% 30.06 in 3.0 mi East 10.4 mph 25.3 mph 0.00 in Rain Heavy Rain
11:50 PM 69.8 °F - 64.4 °F 83% 30.07 in 10.0 mi SE 6.9 mph - N/A Thunderstorm Scattered Clouds
11:53 PM 70.0 °F - 64.9 °F 84% 29.92 in 10.0 mi SSE 8.1 mph - N/A Thunderstorm Scattered Clouds